Find Starlink 31291

NORAD ID: 59096 Int'l Des: 2024-041 Owner: SPXS Country: US Constellation: starlink operational
LEOCIRCULAR

Current View

Loading 3D Globe...

About Starlink 31291

Starlink 31291 (NORAD 59096) is a starlink constellation satellite (v2 mini) launched Feb 29, 2024 by SPXS of US. It operates in LEO, CIRCULAR orbit with a mass of 730.00 kg.

About Starlink 31291

Description loading...

Upcoming Passes

Passes for default location (London). Set your location on the main map for personalized predictions.

Altitude History

Loading altitude history...

Two-Line Element Set

1 59096U 24041Y 26165.60176246 -.00000483 00000-0 -80157-5 0 9995
2 59096 43.0145 123.3322 0002038 272.9343 87.1276 15.27573725129093
Epoch: Jun 14, 2026 • Age: 27 hours

Current Status

Altitude 487.4 km
Velocity 7.63 km/s
Sub-Earth Point 42.03°N, 55.6°E
Launch Date Feb 29, 2024
Age 2.2 years
Type internet

Technical Details

Classification Payload
Mass 730.00 kg
Dry Mass 700.00 kg
Total Mass 730.00 kg
Length 0.30 m
Diameter 4.10 m
Span 29.00 m
Shape Box + pan
Manufacturer SPXS
Bus Type Starlink V2M
Phase Status In Orbit
Owner/State SPXS/US

Most Searched